User: anonymous   Login
Location: Hokitika
(42.7170°S, 170.9670°E)
Time: 23:34:23
(UTC+13:00)
Language:

Cosmos 1709 Rocket - Orbit

View from above orbital plane
View from above orbital plane
View from above satellite
View from above satellite

Ground track
Ground track

The orbit data is extracted from the following two-line orbital elements,

1 16369U 85116B   19079.86285626 -.00000047  00000-0 -62914-4 0  9994
2 16369  82.9371 230.9448 0036915 160.9576 351.5069 13.76833720670276
Epoch (UTC): 20 March 2019 20:42:30
Eccentricity: 0.0036915
inclination: 82.9371°
perigee height: 948 km
apogee height: 1002 km
right ascension of ascending node: 230.9448°
argument of perigee: 160.9576°
revolutions per day: 13.76833720
mean anomaly at epoch: 351.5069°
orbit number at epoch: 67027

The dashed part of the orbit path shows where the satellite is in the earth's shadow,  

DLR